Location: Bonny Doon Airfield
(37.0704°N, 122.1252°W)
Time: 21:04:58
(UTC-07:00)

Envisat - Pass Details

Date: 12 October 2017
Orbit: 764 x 766 km, 98.2° (Epoch: 17 October)

Event Time Altitude Azimuth Distance (km) Brightness Sun altitude
Exits shadow 20:14:11 27° 44° (NE) 1,454 4.1 -20.5°
Drops below altitude 10° 20:17:18 10° 10° (N) 2,306 5.4 -21.1°
Sets 20:19:51 0° 360° (N) 3,236 6.3 -21.6°
